[[{"header":{"parameterUnit":"m.s-1","parameterCategory":1,"la1":30.2991,"la2":30.254,"lo1":-89.0895,"lo2":-89.0444,"dy":0.0017,"dx":0.0017,"nx":28,"ny":28,"refTime":"2025-04-10T21:00:00:Z","depth":0,"parameterNumber":2,"parameterNumberName":"U-component_of_WINDS"},"data":[0,0,0,0,0,0,0,0,0,0,0,0,0,0,0,0,0,0,0,0,0,0,0,0,0,0,0,0,0,0,0,0,0,0,0,0,0,0,0,0,0,0,0,0,0,0,0,0,0,0,0,0,0,0,0,0,0,0,3.7615,3.7616,0,3.7714,3.7716,3.7717,3.7605,3.7601,3.7596,3.7592,3.77,3.7707,3.7713,0,0,0,0,0,0,0,0,0,0,0,0,0,3.7336,3.7342,3.7615,3.7616,3.7617,3.7714,3.7716,3.7717,3.7606,3.76,3.7595,3.759,3.7698,3.7706,3.7714,0,0,0,0,0,0,0,0,0,0,0,0,0,3.7449,3.7343,3.7615,3.7573,3.7571,3.7714,3.7716,3.7717,3.7607,3.76,3.7594,3.7588,3.7695,3.7705,3.7715,3.7906,0,0,3.7746,3.7751,0,0,0,0,0,0,0,0,3.7442,3.7459,3.7578,3.7576,3.7574,3.7641,3.7657,3.7781,3.7608,3.7593,3.7592,3.7585,3.7686,3.7696,3.7729,3.7911,3.7915,3.7747,3.7753,3.7758,3.7761,0,0,0,0,0,0,0,3.7435,3.7454,3.7654,3.758,3.7577,3.7552,3.7561,3.768,3.7674,3.7594,3.7586,3.7599,3.7683,3.772,3.7731,3.7917,3.7747,3.7756,3.7762,3.7766,3.8265,3.8272,0,0,0,0,0,0,3.7431,3.7448,3.7651,3.7657,3.7491,3.7563,3.7572,3.7626,3.7673,3.7673,3.7604,3.7594,3.7705,3.7719,3.7734,3.7964,3.7758,3.7767,3.7773,3.8258,3.8266,3.8274,0,0,0,0,0,0,3.7425,3.745,3.7647,3.7551,3.7574,3.7574,3.7635,3.7631,3.7667,3.768,3.7679,3.7642,3.7701,3.772,3.7865,3.7966,3.7772,3.7781,3.825,3.8261,3.827,3.8423,0,0,0,0,0,0,3.7418,3.7448,3.7519,3.7553,3.758,3.7774,3.7641,3.7638,3.7684,3.7671,3.7715,3.7717,3.7697,3.785,3.7875,3.7977,3.7789,3.824,3.8254,3.8267,3.8409,3.8438,3.8462,0,0,0,0,0,3.7408,3.7558,3.7523,3.7548,3.7667,3.778,3.7795,3.7768,3.7693,3.7766,3.7775,3.7715,3.795,3.7866,3.7893,3.7999,3.8234,3.825,3.8266,3.8397,3.8432,3.8461,0,0,0,0,0,0,3.7537,3.7562,3.7523,3.7688,3.7733,3.7761,3.7851,3.7806,3.7874,3.7859,3.7824,3.7835,3.799,3.8008,3.7913,3.8188,3.808,3.8102,3.8171,3.8204,3.823,3.8224,3.7798,0,0,0,0,0,3.7585,3.7672,3.769,3.7834,3.7858,3.7852,3.7899,3.7875,3.792,3.7939,3.7958,3.8007,3.8092,3.8148,3.8227,3.8411,3.8421,3.8497,3.8524,3.8546,3.8566,3.8669,3.8705,3.8327,3.8327,3.8326,0,0,3.7685,3.7709,3.7766,3.7861,3.7892,3.7987,3.7868,3.7972,3.8042,3.7955,3.8094,3.811,3.8162,3.8328,3.8402,3.8349,3.8673,3.8566,3.8583,3.8592,3.8689,3.8725,3.8757,3.8338,3.8336,3.8334,0,0,3.7915,3.794,3.8065,3.81,3.8148,3.8143,3.8174,3.8209,3.8217,3.8354,3.8292,3.8377,3.8522,3.8563,3.8603,3.8852,3.8802,3.8879,3.9018,3.9119,3.9149,3.9175,3.9268,3.9301,3.8898,3.8899,3.8899,0,3.8033,3.817,3.8136,3.8245,3.8291,3.8214,3.8343,3.8378,3.8452,3.8486,3.8424,3.8608,3.8637,3.8814,3.8875,3.8909,3.8945,3.8874,3.9147,3.9173,3.9197,3.9286,3.932,3.8908,3.8907,3.8906,3.8905,0,3.8316,3.8412,3.8508,3.858,3.8635,3.8754,3.874,3.8801,3.8772,3.8775,3.8919,3.8951,3.9037,3.9076,3.9049,3.9251,3.9217,3.9152,3.9043,3.9243,3.9326,3.9359,3.8921,3.8918,3.8915,3.8913,0,0,3.8631,3.8683,3.8719,3.8752,3.8802,3.8877,3.8994,3.9076,3.9131,3.9185,3.9284,3.9411,3.9352,3.9397,3.9374,3.9462,3.9663,3.9387,3.9388,3.9441,3.9893,3.9944,3.9983,3.9629,3.9635,3.964,3.989,0,3.8865,3.9065,3.9038,3.9232,3.9323,3.9253,3.9356,3.9399,3.9405,3.9485,3.9492,3.9584,3.9497,3.9525,3.9609,3.9621,3.9754,3.9602,3.9725,3.973,3.9718,4.0025,4.0079,4.0313,3.9921,3.9926,3.993,0,3.9165,3.9229,3.9431,3.947,3.9507,3.9599,3.9675,3.9751,3.98,3.9799,3.9851,3.9813,3.9933,3.982,3.9988,3.9886,3.9935,3.9949,3.9957,3.997,3.9845,4.0051,4.0386,4.0423,3.998,3.9976,3.9972,0,3.9379,3.9516,3.9656,3.9686,3.9733,3.98,3.9824,3.9866,3.9919,3.9985,4.002,4.01,4.0145,4.021,4.0196,4.0114,4.037,4.0254,4.0375,4.0376,4.0434,4.0432,4.0787,4.046,4.046,4.0459,4.0458,0,3.9646,3.9773,3.9753,3.984,3.9982,3.9951,4.0094,4.0109,4.0148,4.0239,4.0183,4.027,4.0244,4.0331,4.0321,4.0465,4.0484,4.0489,4.0486,4.0497,4.0497,4.053,4.0515,4.0468,4.0466,4.0465,4.0463,0,3.991,3.9901,4.005,4.0083,4.0094,4.0198,4.0227,4.0311,4.0312,4.0428,4.0453,4.0457,4.0557,4.0549,4.0661,4.0654,4.0833,4.0808,4.0816,4.0812,4.0935,4.0926,4.1327,4.1381,4.1016,4.102,4.1023,0,4.0082,4.0179,4.0222,4.0278,4.0306,4.0397,4.045,4.0425,4.0483,4.0548,4.0625,4.0719,4.0793,4.0956,4.0971,4.1057,4.1037,4.1172,4.105,4.1059,4.1044,4.104,4.1051,4.1197,4.1201,4.1204,4.1207,0,4.039,4.0382,4.0459,4.0538,4.0603,4.0664,4.0718,4.0768,4.0748,4.0818,4.0918,4.0976,4.1091,4.1187,4.1269,4.1296,4.1251,4.1245,4.1278,4.1292,4.1294,4.1299,4.0886,4.1236,4.1233,4.1231,4.123,4.1228,4.0617,4.0701,4.0745,4.0835,4.0874,4.0927,4.1008,4.102,4.1102,4.1193,4.1173,4.1288,4.1338,4.1444,4.1479,4.1571,4.1523,4.157,4.1583,4.1596,4.1612,4.1277,4.1585,4.1584,4.1584,4.1583,4.1582,0,4.0925,4.0951,4.1034,4.1112,4.1184,4.1132,4.1191,4.1256,4.1357,4.1406,4.148,4.1598,4.1691,4.1714,4.1804,4.1874,4.1855,4.1899,4.1895,4.1903,4.1648,4.1612,4.1912,4.1912,4.1912,4.1912,4.1912,4.1912,4.1095,4.1236,4.1233,4.1394,4.1418,4.1529,4.1568,4.1618,4.1658,4.1792,4.1868,4.1881,4.1922,4.2015,4.21,4.2104,4.2142,4.2195,4.2192,4.1953,4.192,4.1889,4.1855,4.2202,4.2203,4.244,4.2442,4.2444]},{"header":{"parameterUnit":"m.s-1","parameterCategory":1,"la1":30.2991,"la2":30.254,"lo1":-89.0895,"lo2":-89.0444,"dy":0.0017,"dx":0.0017,"nx":28,"ny":28,"refTime":"2025-04-10T21:00:00:Z","depth":0,"parameterNumber":3,"parameterNumberName":"V-component_of_WINDS"},"data":[0,0,0,0,0,0,0,0,0,0,0,0,0,0,0,0,0,0,0,0,0,0,0,0,0,0,0,0,0,0,0,0,0,0,0,0,0,0,0,0,0,0,0,0,0,0,0,0,0,0,0,0,0,0,0,0,0,0,-4.1617,-4.1618,0,-4.1744,-4.1745,-4.1746,-4.1771,-4.177,-4.1769,-4.1768,-4.1897,-4.1901,-4.1905,0,0,0,0,0,0,0,0,0,0,0,0,0,-4.1394,-4.1398,-4.1616,-4.1618,-4.162,-4.1743,-4.1745,-4.1747,-4.1771,-4.177,-4.1769,-4.1768,-4.1895,-4.19,-4.1906,0,0,0,0,0,0,0,0,0,0,0,0,0,-4.1503,-4.1399,-4.1616,-4.1647,-4.1651,-4.1743,-4.1745,-4.1747,-4.1772,-4.177,-4.1769,-4.1767,-4.1894,-4.19,-4.1906,-4.1976,0,0,-4.1926,-4.1929,0,0,0,0,0,0,0,0,-4.1496,-4.1511,-4.1641,-4.1645,-4.165,-4.174,-4.1714,-4.1824,-4.1772,-4.1726,-4.1768,-4.1766,-4.1846,-4.1856,-4.1883,-4.1983,-4.1988,-4.1927,-4.1931,-4.1934,-4.1936,0,0,0,0,0,0,0,-4.1489,-4.1505,-4.1667,-4.1643,-4.1648,-4.1654,-4.1668,-4.1735,-4.1792,-4.173,-4.1732,-4.1746,-4.1848,-4.1877,-4.1886,-4.199,-4.1927,-4.1933,-4.1937,-4.1939,-4.2153,-4.2155,0,0,0,0,0,0,-4.1476,-4.1499,-4.1663,-4.1671,-4.1568,-4.1659,-4.1674,-4.1712,-4.1792,-4.1803,-4.1748,-4.1747,-4.1866,-4.1879,-4.1891,-4.1978,-4.1934,-4.194,-4.1943,-4.2151,-4.2154,-4.2155,0,0,0,0,0,0,-4.1471,-4.149,-4.1658,-4.1585,-4.1607,-4.1664,-4.1707,-4.1716,-4.1745,-4.1805,-4.1816,-4.1767,-4.1866,-4.1882,-4.1955,-4.1983,-4.1943,-4.1949,-4.2149,-4.2152,-4.2154,-4.2153,0,0,0,0,0,0,-4.1465,-4.1489,-4.1516,-4.1586,-4.1611,-4.172,-4.1709,-4.1719,-4.1756,-4.1757,-4.1826,-4.1836,-4.1866,-4.1945,-4.1962,-4.1991,-4.1954,-4.2147,-4.215,-4.2154,-4.2151,-4.2155,-4.2159,0,0,0,0,0,-4.1457,-4.151,-4.1517,-4.1537,-4.1647,-4.1722,-4.1736,-4.1769,-4.1758,-4.1786,-4.1825,-4.1834,-4.1977,-4.1953,-4.1971,-4.2003,-4.2145,-4.215,-4.2153,-4.2149,-4.2155,-4.2159,0,0,0,0,0,0,-4.1442,-4.152,-4.1529,-4.1607,-4.1657,-4.1726,-4.1762,-4.1774,-4.1829,-4.1827,-4.1865,-4.1881,-4.1952,-4.1985,-4.1956,-4.2075,-4.2061,-4.2069,-4.2051,-4.2057,-4.2061,-4.2051,-4.1959,0,0,0,0,0,-4.1448,-4.1502,-4.1568,-4.163,-4.1655,-4.1704,-4.1738,-4.1759,-4.1813,-4.1835,-4.1879,-4.1931,-4.1987,-4.2024,-4.208,-4.2156,-4.2171,-4.2187,-4.2191,-4.2194,-4.2201,-4.2243,-4.2251,-4.2169,-4.2168,-4.2168,0,0,-4.146,-4.151,-4.1542,-4.1628,-4.167,-4.1726,-4.1722,-4.1781,-4.1822,-4.1844,-4.1916,-4.195,-4.201,-4.2085,-4.2121,-4.2115,-4.2227,-4.2199,-4.2201,-4.2206,-4.2248,-4.2256,-4.2263,-4.2171,-4.2171,-4.217,0,0,-4.1511,-4.1554,-4.1611,-4.1653,-4.1717,-4.1749,-4.1762,-4.1829,-4.1853,-4.1926,-4.1943,-4.1993,-4.209,-4.2132,-4.2166,-4.2233,-4.2243,-4.225,-4.2272,-4.2313,-4.2319,-4.2325,-4.2349,-4.2357,-4.2256,-4.2256,-4.2256,0,-4.1518,-4.1603,-4.1638,-4.1697,-4.1734,-4.1757,-4.1814,-4.1853,-4.1931,-4.1956,-4.1949,-4.2072,-4.2114,-4.2199,-4.2215,-4.2242,-4.2259,-4.2242,-4.2316,-4.2322,-4.2328,-4.2351,-4.236,-4.2257,-4.2257,-4.2257,-4.2257,0,-4.1609,-4.1667,-4.1705,-4.1781,-4.1823,-4.188,-4.1924,-4.1962,-4.198,-4.2012,-4.2086,-4.2138,-4.2204,-4.2226,-4.2244,-4.2314,-4.2309,-4.2308,-4.2294,-4.2336,-4.2358,-4.2367,-4.2257,-4.2257,-4.2257,-4.2257,0,0,-4.1653,-4.1748,-4.1761,-4.1796,-4.1868,-4.1914,-4.1972,-4.2037,-4.2069,-4.2122,-4.2172,-4.2254,-4.2254,-4.2293,-4.2315,-4.2352,-4.2401,-4.2347,-4.2349,-4.2355,-4.2481,-4.2481,-4.249,-4.2408,-4.241,-4.2412,-4.2476,0,-4.1713,-4.1818,-4.1852,-4.194,-4.1994,-4.2016,-4.2067,-4.2117,-4.2149,-4.2199,-4.2235,-4.2292,-4.2288,-4.2312,-4.2349,-4.2387,-4.2427,-4.2383,-4.2454,-4.2457,-4.2438,-4.2502,-4.2502,-4.256,-4.2485,-4.2487,-4.2488,0,-4.1796,-4.1851,-4.1944,-4.2009,-4.2034,-4.2079,-4.2141,-4.219,-4.2246,-4.2267,-4.231,-4.233,-4.2392,-4.2375,-4.246,-4.2429,-4.246,-4.2484,-4.2487,-4.2494,-4.2474,-4.2511,-4.2579,-4.2588,-4.2502,-4.2501,-4.25,0,-4.1818,-4.1916,-4.1985,-4.2013,-4.2091,-4.2123,-4.2156,-4.2211,-4.2249,-4.2303,-4.2328,-4.2389,-4.2422,-4.2468,-4.2504,-4.2488,-4.2586,-4.2572,-4.2604,-4.2604,-4.2623,-4.2622,-4.2697,-4.2644,-4.2644,-4.2644,-4.2644,0,-4.1881,-4.1937,-4.1996,-4.2038,-4.2101,-4.2139,-4.2201,-4.2236,-4.2285,-4.2334,-4.2357,-4.2402,-4.2447,-4.2498,-4.2526,-4.2592,-4.2607,-4.2625,-4.2632,-4.2623,-4.2621,-4.2644,-4.264,-4.2646,-4.2646,-4.2645,-4.2645,0,-4.1916,-4.1958,-4.2034,-4.2102,-4.212,-4.2164,-4.2222,-4.2263,-4.2297,-4.2358,-4.2375,-4.2427,-4.2489,-4.2529,-4.2608,-4.2627,-4.2698,-4.2704,-4.2679,-4.2683,-4.2713,-4.2709,-4.2805,-4.282,-4.2757,-4.2758,-4.2758,0,-4.1953,-4.1997,-4.207,-4.2104,-4.2138,-4.2194,-4.2232,-4.2271,-4.231,-4.2378,-4.2411,-4.2474,-4.2527,-4.2624,-4.2668,-4.2728,-4.2736,-4.2765,-4.2745,-4.2734,-4.2736,-4.2732,-4.2737,-4.2768,-4.2769,-4.2769,-4.277,0,-4.2014,-4.2032,-4.2087,-4.2149,-4.2194,-4.2244,-4.2295,-4.2322,-4.237,-4.2412,-4.2475,-4.2516,-4.2596,-4.2659,-4.2723,-4.2757,-4.2771,-4.2776,-4.2786,-4.2777,-4.2761,-4.277,-4.2688,-4.2773,-4.2773,-4.2773,-4.2772,-4.2772,-4.2051,-4.2091,-4.2148,-4.2208,-4.225,-4.2297,-4.2339,-4.2378,-4.2432,-4.2501,-4.2521,-4.2587,-4.2642,-4.273,-4.2765,-4.2817,-4.2814,-4.2829,-4.2833,-4.2836,-4.2836,-4.2753,-4.2829,-4.2829,-4.2829,-4.2829,-4.2829,0,-4.2112,-4.215,-4.2205,-4.2275,-4.2322,-4.2332,-4.2389,-4.2427,-4.2485,-4.2536,-4.2588,-4.266,-4.2721,-4.277,-4.2833,-4.2865,-4.2873,-4.288,-4.2877,-4.2885,-4.2836,-4.282,-4.2872,-4.2872,-4.2872,-4.2872,-4.2872,-4.2872,-4.215,-4.2217,-4.2243,-4.2332,-4.237,-4.2435,-4.2466,-4.2509,-4.255,-4.263,-4.2681,-4.2713,-4.2764,-4.283,-4.2886,-4.2899,-4.292,-4.2926,-4.294,-4.2893,-4.2888,-4.2884,-4.2869,-4.2931,-4.2931,-4.2985,-4.2985,-4.2986]}]]